Location: Anne Acres
(38.7004°N, 75.0827°W)
Time: 09:05:40
(UTC+00:00)

Envisat - Pass Details

Date: 10 October 2024
Orbit: 762 x 763 km, 98.3° (Epoch: 03 November)

Event Time Altitude Azimuth Distance (km) Brightness Sun altitude
Rises 08:22:42 0° 9° (N) 3,233 6.6 -32.1°
Reaches altitude 10° 08:25:01 10° 7° (N) 2,303 5.7 -31.7°
Enters shadow 08:26:48 22° 2° (N) 1,618 4.8 -31.4°
